Vertical_Velocity
5 1 -10 -2 3 15 17 1 -4 1 -2 10 6 -1 4 0 2 -2 -4 -2 -2 -2 2 1 0 -3 -1 2 0 0 7 7
-3 -0 5 -8 6 5 7 -2 4 3 -3 3 -9 -5 9 2 3 -3 -2 -2 -3 1 -1 1 -0 -3 6 2 3 3 -0 4
0 -7 2 2 0 7 2 -5 0 -2 -6 14 7 10 6 3 0 -3 -0 -0 -4 3 -2 2 1 -1 2 -1 2 1 -1 1
-5 5 -2 -0 -1 9 -6 5 2 -1 -0 -6 9 -5 -3 -9 -0 3 2 -1 -1 2 -2 2 -1 0 -2 3 -0 0 4 5
5 7 1 -3 12 2 5 4 1 -3 1 12 7 -0 2 8 8 -2 -2 -0 1 0 -3 2 1 1 0 2 4 0 -1 0
4 -7 7 11 8 -2 0 6 2 2 -3 7 11 1 1 8 -2 -2 -1 -3 2 -3 0 2 -2 -2 -1 1 -1 -2 6 -2
-1 -4 1 -2 -8 0 12 -1 6 10 4 14 3 2 2 -3 2 3 -1 -0 -1 1 0 1 -1 -3 -4 2 1 -1 -1 20
7 1 2 -5 -6 -4 -12 22 0 -9 6 -5 5 -2 -0 5 3 1 -3 -2 -2 2 -0 0 1 1 5 1 -2 -5 -5 6
7 3 15 1 1 -2 -26 -2 18 1 -2 1 5 -1 -1 1 5 -1 -4 -4 4 -1 -1 -2 -1 -1 -0 6 2 -1 14 -2
5 13 2 -1 3 -5 0 15 -22 3 31 6 -1 -3 2 2 3 -2 -2 -3 -2 -1 -2 -3 -1 1 5 -1 15 8 -3 20
7 4 3 -2 3 18 5 12 11 22 18 1 15 6 2 1 -1 -3 -1 -3 -3 -1 -1 -0 0 1 2 -2 -6 2 30 6
1 1 2 3 10 -1 12 22 25 14 15 25 3 5 2 5 1 -0 -3 -3 -1 1 0 -4 -1 1 5 -5 5 5 24 -7
3 -1 4 9 7 14 15 11 -7 52 2 8 8 0 -1 4 -3 -1 1 -1 0 1 -0 1 1 1 0 2 6 13 5 -6
2 1 -0 4 -0 5 -10 -31 -15 -21 -39 18 8 -1 -3 1 -3 -2 -1 -2 -1 3 -0 1 -1 -2 2 -4 1 -3 2 -4
-2 -3 -1 2 4 6 -3 20 5 7 53 1 3 1 -5 6 -0 1 1 1 2 3 2 1 -0 -2 2 3 8 -5 15 2
0 -1 -0 2 1 1 1 -2 17 -4 -3 -7 10 -8 -1 7 -4 0 1 1 2 2 1 1 1 -2 -3 1 7 1 -4 -6
-1 2 -1 -2 -1 3 3 3 6 0 4 9 8 11 7 1 -5 -3 -1 -1 0 2 0 0 0 -0 -3 -1 2 -3 1 3
-1 -1 4 -1 1 -3 -4 -2 4 3 -2 14 -5 -4 -0 -4 -2 0 -7 -0 -0 1 1 2 1 1 1 -2 -1 -2 -7 -7
0 -1 -3 2 1 3 1 0 3 6 26 -4 13 1 -1 -2 -4 -2 1 -0 1 1 0 2 2 2 2 -0 -1 -2 -4 -2
Height
3036 3036 3037 3037 3040 3043 3047 3053 3058 3063 3065 3068 3071 3072 3076 3077 3080 3082 3083 3083 3083 3082 3082 3084 3084 3086 3087 3089 3092 3095 3100 3104
3028 3029 3029 3029 3031 3034 3038 3044 3050 3054 3057 3061 3063 3067 3070 3072 3074 3076 3077 3078 3078 3076 3077 3077 3078 3080 3082 3085 3087 3091 3093 3096
3016 3018 3021 3022 3023 3026 3030 3035 3042 3047 3051 3053 3058 3061 3065 3068 3070 3070 3072 3072 3072 3071 3070 3071 3072 3074 3076 3079 3082 3085 3087 3089
3006 3007 3010 3015 3015 3018 3022 3027 3034 3038 3043 3046 3052 3055 3059 3061 3064 3066 3067 3067 3065 3065 3064 3064 3065 3067 3071 3074 3077 3078 3080 3081
2995 2996 2998 3002 3008 3012 3014 3019 3026 3031 3035 3041 3046 3050 3053 3057 3061 3061 3061 3061 3059 3059 3058 3058 3060 3063 3066 3069 3071 3073 3073 3075
2987 2989 2991 2995 3000 3004 3007 3013 3019 3024 3030 3036 3041 3044 3048 3052 3055 3056 3056 3056 3054 3054 3053 3052 3055 3058 3061 3063 3065 3066 3067 3067
2983 2983 2985 2989 2995 2999 3002 3008 3014 3020 3025 3030 3035 3039 3042 3046 3049 3050 3051 3051 3050 3049 3048 3049 3051 3053 3056 3058 3059 3060 3061 3063
2979 2979 2981 2985 2990 2995 2998 3003 3010 3016 3021 3025 3028 3033 3037 3040 3042 3044 3046 3046 3045 3043 3043 3045 3047 3049 3051 3052 3053 3054 3054 3058
2976 2977 2979 2983 2986 2991 2994 2999 3004 3011 3016 3019 3021 3027 3031 3034 3037 3039 3040 3040 3039 3037 3038 3040 3042 3044 3045 3045 3044 3046 3048 3051
2974 2975 2976 2979 2984 2986 2991 2995 3000 3005 3010 3012 3016 3022 3025 3028 3032 3034 3035 3035 3033 3033 3034 3036 3036 3037 3037 3035 3035 3038 3043 3046
2970 2971 2973 2976 2980 2981 2985 2988 2992 2998 3004 3007 3011 3016 3020 3024 3026 3030 3031 3030 3028 3029 3030 3030 3031 3031 3030 3029 3029 3033 3036 3043
2967 2967 2971 2972 2974 2977 2981 2984 2986 2991 2996 3001 3005 3010 3014 3019 3022 3024 3026 3026 3024 3025 3025 3025 3026 3025 3026 3024 3026 3029 3032 3038
2965 2965 2967 2968 2971 2973 2974 2976 2978 2973 2989 2994 2998 3004 3009 3012 3017 3019 3021 3021 3021 3021 3021 3021 3022 3022 3023 3022 3023 3027 3031 3035
2964 2963 2964 2966 2968 2969 2970 2964 2963 2972 2983 2987 2993 2997 3004 3008 3012 3014 3015 3016 3016 3018 3018 3018 3017 3018 3020 3020 3021 3023 3028 3032
2963 2962 2962 2963 2965 2968 2971 2972 2975 2979 2974 2982 2990 2993 2999 3003 3006 3009 3011 3013 3013 3014 3015 3015 3015 3015 3018 3019 3020 3021 3025 3028
2964 2962 2961 2961 2962 2964 2968 2971 2974 2976 2979 2976 2983 2990 2995 2998 3002 3005 3007 3009 3010 3011 3012 3012 3012 3013 3015 3018 3019 3021 3024 3027
2964 2962 2961 2960 2960 2961 2963 2967 2970 2973 2976 2978 2981 2985 2989 2994 2999 3001 3004 3004 3006 3007 3008 3009 3010 3011 3013 3016 3019 3021 3023 3026
2965 2963 2961 2959 2959 2960 2962 2964 2968 2971 2974 2974 2978 2982 2985 2988 2992 2996 2999 2999 3001 3002 3004 3006 3007 3009 3011 3013 3016 3017 3020 3023
2964 2962 2961 2959 2957 2957 2961 2963 2966 2969 2969 2974 2974 2977 2980 2982 2985 2988 2991 2993 2995 2997 2999 3001 3003 3005 3007 3010 3012 3013 3015 3018